Live-Position
3D-Globus wird geladen...
Über Beidou DW 4
Group: 3 satellites
Beschreibung wird geladen...
Nächste Überflüge
Passes for default location (London). Set your location on the main map for personalized predictions.
Höhenverlauf
Loading altitude history...
No altitude history available
Zweizeiliger Elementsatz
1 36590U 10024A 26106.95534786 -.00000127 00000-0 00000-0 0 9993
2 36590 4.3699 61.7464 0008558 336.0911 230.8728 1.00271183 58155
Epoch: 16. Apr. 2026 •
Age: 10 hours
Aktueller Status
Höhe 35751.9 km
Geschwindigkeit 3.08 km/s
Subsatellitenpunkt -0.41°S,
79.73°E
Startdatum 2. Juni 2010
Alter 15.8 years
Typ navigation
Technische Details
Klassifizierung Payload
Masse 3060.00 kg
Trockenmasse 1700.00 kg
Gesamtmasse 3060.00 kg
Länge 3.00 m
Durchmesser 1.70 m
Spannweite 18.00 m
Form Box + 2 Pan
Hersteller CAST
Bus-Typ DFH-3B
Phasenstatus In Orbit
Besitzer/Staat CNSA/CN
Most Searched
Loading...